Grosse Ile, MI

5:00 PM EDT on April 24, 2018 (GMT -0400)
Grosse Ile Municipal

Weather History for KONZ - September, 2013

Change the Weather History Date:

Monday, September 2, 2013

  Actual Average (KDTW) Record (KDTW)
Temperature  
Mean Temperature 71 °F -  
Max Temperature 78 °F 79 °F 100 °F (1953)
Min Temperature 64 °F 58 °F 44 °F (1885)
Cooling Degree Days 6    
Growing Degree Days 21 (Base 50)    
Moisture  
Dew Point 62 °F    
Average Humidity 71    
Maximum Humidity 94    
Minimum Humidity 47    
Precipitation  
Precipitation 0.00 in - - ()
Sea Level Pressure  
Sea Level Pressure 29.80 in    
Wind  
Wind Speed 7 mph (NW)    
Max Wind Speed 16 mph    
Max Gust Speed 24 mph    
Visibility 9 miles    
Events Rain    
Averages and records for this station are not official NWS values.
T = Trace of Precipitation, MM = Missing Value Source: NWS Daily Summary

Daily Weather History Graph

Daily Weather History Graph

Search for Another Location

Airport or City:

Astronomy

Sep. 02, 2013 Rise Set
Actual Time 6:59 AM EDT 8:04 PM EDT
Civil Twilight 6:30 AM EDT 8:32 PM EDT
Nautical Twilight 5:56 AM EDT 9:07 PM EDT
Astronomical Twilight 5:20 AM EDT 9:42 PM EDT
Moon 4:13 AM EDT (9/2) 6:18 PM EDT (9/2)
Length of Visible Light 14h 02m
Length of Day
13h 04m
Waning Crescent, 8% of the Moon is Illuminated
Sep 2
Waning Crescent
Sep 5
New
Sep 12
First Quarter
Sep 19
Full
Sep 26
Last Quarter

Hourly Weather History & Observations

Time (EDT) Temp. Dew Point Humidity Pressure Visibility Wind Dir Wind Speed Gust Speed Precip Events Conditions
12:14 AM 73.4 °F 69.8 °F 88% 29.75 in 10.0 mi SW 5.8 mph - N/A   Mostly Cloudy
12:34 AM 73.4 °F 69.8 °F 88% 29.76 in 10.0 mi WSW 4.6 mph - N/A   Overcast
12:54 AM 73.4 °F 69.8 °F 88% 29.76 in 10.0 mi WSW 3.5 mph - N/A   Overcast
1:14 AM 73.4 °F 69.8 °F 88% 29.76 in 10.0 mi WSW 5.8 mph - N/A   Mostly Cloudy
1:34 AM 73.4 °F 69.8 °F 88% 29.76 in 10.0 mi West 4.6 mph - N/A   Clear
1:54 AM 73.4 °F 69.8 °F 88% 29.75 in 7.0 mi WSW 3.5 mph - N/A   Clear
2:14 AM 73.4 °F 69.8 °F 88% 29.74 in 7.0 mi Calm Calm - N/A   Clear
2:34 AM 71.6 °F 69.8 °F 94% 29.74 in 7.0 mi SW 4.6 mph - N/A   Clear
2:54 AM 71.6 °F 68.0 °F 88% 29.73 in 7.0 mi WSW 4.6 mph - N/A   Clear
3:14 AM 71.6 °F 68.0 °F 88% 29.73 in 7.0 mi West 4.6 mph - N/A   Clear
3:34 AM 71.6 °F 68.0 °F 88% 29.73 in 5.0 mi West 4.6 mph - N/A   Clear
3:54 AM 71.6 °F 68.0 °F 88% 29.72 in 5.0 mi West 4.6 mph - N/A   Clear
4:14 AM 71.6 °F 68.0 °F 88% 29.72 in 5.0 mi West 3.5 mph - N/A   Clear
4:34 AM 69.8 °F 66.2 °F 88% 29.73 in 5.0 mi West 4.6 mph - N/A   Clear
4:54 AM 69.8 °F 66.2 °F 88% 29.73 in 7.0 mi West 3.5 mph - N/A   Clear
5:14 AM 69.8 °F 66.2 °F 88% 29.73 in 7.0 mi West 5.8 mph - N/A   Clear
5:34 AM 69.8 °F 66.2 °F 88% 29.73 in 7.0 mi WNW 6.9 mph - N/A   Clear
5:54 AM 69.8 °F 66.2 °F 88% 29.74 in 10.0 mi WNW 5.8 mph - N/A   Clear
6:14 AM 69.8 °F 66.2 °F 88% 29.74 in 10.0 mi WNW 5.8 mph - N/A   Clear
6:34 AM 69.8 °F 66.2 °F 88% 29.75 in 10.0 mi WNW 5.8 mph - N/A   Mostly Cloudy
6:54 AM 69.8 °F 66.2 °F 88% 29.76 in 10.0 mi WNW 3.5 mph - N/A   Overcast
7:14 AM 69.8 °F 66.2 °F 88% 29.77 in 7.0 mi NNW 6.9 mph - N/A   Overcast
7:34 AM 69.8 °F 66.2 °F 88% 29.77 in 7.0 mi NW 4.6 mph - N/A   Overcast
7:54 AM 69.8 °F 66.2 °F 88% 29.78 in 7.0 mi NW 5.8 mph - N/A Rain Light Rain
8:14 AM 69.8 °F 66.2 °F 88% 29.78 in 7.0 mi NW 3.5 mph - N/A   Mostly Cloudy
8:34 AM 71.6 °F 66.2 °F 83% 29.78 in 7.0 mi NNW 6.9 mph - N/A   Scattered Clouds
8:54 AM 71.6 °F 66.2 °F 83% 29.78 in 7.0 mi NNW 6.9 mph - N/A   Scattered Clouds
9:14 AM 71.6 °F 66.2 °F 83% 29.79 in 10.0 mi NNW 9.2 mph - N/A   Scattered Clouds
9:34 AM 73.4 °F 66.2 °F 78% 29.79 in 10.0 mi NNW 10.4 mph - N/A   Mostly Cloudy
9:54 AM 71.6 °F 64.4 °F 78% 29.80 in 10.0 mi NNW 8.1 mph - N/A   Mostly Cloudy
10:14 AM 71.6 °F 64.4 °F 78% 29.81 in 10.0 mi NNW 9.2 mph - N/A   Overcast
10:34 AM 71.6 °F 64.4 °F 78% 29.81 in 10.0 mi NNW 11.5 mph - N/A   Overcast
10:54 AM 73.4 °F 64.4 °F 73% 29.82 in 10.0 mi NNW 10.4 mph - N/A   Scattered Clouds
11:14 AM 73.4 °F 62.6 °F 69% 29.82 in 10.0 mi NNW 9.2 mph - N/A   Mostly Cloudy
11:34 AM 73.4 °F 64.4 °F 73% 29.83 in 10.0 mi WNW 9.2 mph - N/A   Scattered Clouds
11:54 AM 73.4 °F 62.6 °F 69% 29.83 in 10.0 mi NW 10.4 mph - N/A   Scattered Clouds
12:14 PM 73.4 °F 62.6 °F 69% 29.83 in 10.0 mi NW 8.1 mph - N/A   Scattered Clouds
12:34 PM 73.4 °F 60.8 °F 65% 29.83 in 10.0 mi NNW 9.2 mph - N/A   Clear
12:54 PM 73.4 °F 60.8 °F 65% 29.83 in 10.0 mi NW 11.5 mph - N/A   Clear
1:13 PM 73.4 °F 60.8 °F 65% 29.83 in 10.0 mi NW 6.9 mph 16.1 mph N/A   Clear
1:34 PM 75.2 °F 60.8 °F 61% 29.83 in 10.0 mi NW 12.7 mph 16.1 mph N/A   Clear
1:54 PM 75.2 °F 60.8 °F 61% 29.82 in 10.0 mi WNW 10.4 mph - N/A   Scattered Clouds
2:14 PM 77.0 °F 59.0 °F 54% 29.82 in 10.0 mi NW 8.1 mph - N/A   Scattered Clouds
2:34 PM 77.0 °F 57.2 °F 50% 29.82 in 10.0 mi WNW 13.8 mph 19.6 mph N/A   Scattered Clouds
2:54 PM 77.0 °F 60.8 °F 57% 29.81 in 10.0 mi WNW 9.2 mph - N/A   Clear
3:14 PM 77.0 °F 59.0 °F 54% 29.81 in 10.0 mi WNW 10.4 mph 17.3 mph N/A   Clear
3:34 PM 78.8 °F 59.0 °F 51% 29.81 in 10.0 mi WNW 5.8 mph 17.3 mph N/A   Clear
3:54 PM 77.0 °F 59.0 °F 54% 29.81 in 10.0 mi NW 12.7 mph - N/A   Mostly Cloudy
4:14 PM 75.2 °F 57.2 °F 53% 29.81 in 10.0 mi NW 10.4 mph - N/A   Scattered Clouds
4:34 PM 78.8 °F 57.2 °F 47% 29.81 in 10.0 mi WNW 13.8 mph 19.6 mph N/A   Scattered Clouds
4:54 PM 78.8 °F 57.2 °F 47% 29.81 in 10.0 mi WNW 11.5 mph 17.3 mph N/A   Scattered Clouds
5:14 PM 77.0 °F 59.0 °F 54% 29.81 in 10.0 mi WNW 12.7 mph 18.4 mph N/A   Clear
5:34 PM 77.0 °F 57.2 °F 50% 29.81 in 10.0 mi NW 12.7 mph 20.7 mph N/A   Scattered Clouds
5:54 PM 75.2 °F 57.2 °F 53% 29.81 in 10.0 mi WNW 16.1 mph 24.2 mph N/A   Mostly Cloudy
6:14 PM 75.2 °F 57.2 °F 53% 29.82 in 10.0 mi WNW 15.0 mph 19.6 mph N/A   Mostly Cloudy
6:34 PM 73.4 °F 55.4 °F 53% 29.82 in 10.0 mi NW 15.0 mph 19.6 mph N/A   Scattered Clouds
6:53 PM 73.4 °F 55.4 °F 53% 29.83 in 10.0 mi WNW 13.8 mph 24.2 mph N/A   Clear
7:14 PM 71.6 °F 55.4 °F 57% 29.82 in 10.0 mi NW 12.7 mph 18.4 mph N/A   Scattered Clouds
7:34 PM 71.6 °F 55.4 °F 57% 29.84 in 10.0 mi NW 10.4 mph - N/A   Scattered Clouds
7:53 PM 69.8 °F 55.4 °F 60% 29.85 in 10.0 mi NNW 10.4 mph 18.4 mph N/A   Mostly Cloudy
8:14 PM 69.8 °F 55.4 °F 60% 29.85 in 10.0 mi NNW 9.2 mph - N/A   Mostly Cloudy
8:34 PM 69.8 °F 55.4 °F 60% 29.86 in 10.0 mi NW 11.5 mph - N/A   Mostly Cloudy
8:54 PM 69.8 °F 55.4 °F 60% 29.86 in 10.0 mi NNW 12.7 mph 19.6 mph N/A   Overcast
9:14 PM 68.0 °F 55.4 °F 64% 29.87 in 10.0 mi NNW 9.2 mph 18.4 mph N/A   Overcast
9:34 PM 68.0 °F 53.6 °F 60% 29.87 in 10.0 mi NW 11.5 mph 17.3 mph N/A   Overcast
9:54 PM 66.2 °F 53.6 °F 64% 29.88 in 10.0 mi NNW 6.9 mph - N/A   Overcast
10:14 PM 66.2 °F 53.6 °F 64% 29.88 in 10.0 mi NNW 10.4 mph - N/A   Overcast
10:34 PM 66.2 °F 53.6 °F 64% 29.89 in 10.0 mi NNW 12.7 mph - N/A   Overcast
10:54 PM 64.4 °F 51.8 °F 64% 29.89 in 10.0 mi NNW 13.8 mph 17.3 mph N/A   Overcast
11:14 PM 64.4 °F 51.8 °F 64% 29.90 in 10.0 mi North 10.4 mph - N/A   Overcast
11:34 PM 64.4 °F 51.8 °F 64% 29.90 in 10.0 mi NNW 10.4 mph - N/A   Overcast
11:54 PM 64.4 °F 51.8 °F 64% 29.90 in 10.0 mi NNW 12.7 mph 19.6 mph N/A   Overcast